Change the Weather History Date:

Sunday, March 10, 2013

  Actual Average Record
Temperature  
Mean Temperature 42 °F -  
Max Temperature 55 °F 58 °F 86 °F (1955)
Min Temperature 30 °F 34 °F 12 °F (1998)
Degree Days  
Heating Degree Days 22    
Moisture  
Dew Point 37 °F    
Average Humidity 83    
Maximum Humidity 94    
Minimum Humidity 72    
Precipitation  
Precipitation 0.00 in - - ()
Sea Level Pressure  
Sea Level Pressure 29.76 in    
Wind  
Wind Speed 11 mph (West)    
Max Wind Speed 22 mph    
Max Gust Speed 29 mph    
Visibility 10 miles    
Events      
Averages and records for this station are not official NWS values.
T = Trace of Precipitation, MM = Missing Value Source: NWS Daily Summary

Daily Weather History Graph

Daily Weather History Graph

Search for Another Location

Airport or City:

Trip Planner

Search our weather history database for the weather conditions in past years. The results will help you decide how hot, cold, wet, or windy it might be!

Date:

Astronomy

Mar. 10, 2013 Rise Set
Actual Time 7:39 AM CDT 7:24 PM CDT
Civil Twilight 7:14 AM CDT 7:50 PM CDT
Nautical Twilight 6:43 AM CDT 8:21 PM CDT
Astronomical Twilight 6:13 AM CDT 8:51 PM CDT
Moon 6:39 AM CDT (3/10) 6:33 PM CDT (3/10)
Length of Visible Light 12h 36m
Length of Day
11h 44m
Waning Crescent, 2% of the Moon is Illuminated
Mar 10
Waning Crescent
Mar 11
New
Mar 19
First Quarter
Mar 27
Full
Apr 2
Last Quarter

Hourly Weather History & Observations

Time (CDT) Temp. Windchill Dew Point Humidity Pressure Visibility Wind Dir Wind Speed Gust Speed Precip Events Conditions
12:52 AM 54.0 °F - 51.1 °F 90% 29.64 in 10.0 mi South 8.1 mph - N/A   Clear
1:23 AM 53.6 °F - 51.8 °F 94% 29.66 in 10.0 mi South 6.9 mph - N/A   Scattered Clouds
1:32 AM 53.6 °F - 51.8 °F 94% 29.65 in 10.0 mi South 8.1 mph - N/A   Mostly Cloudy
1:52 AM 54.0 °F - 52.0 °F 93% 29.64 in 10.0 mi South 10.4 mph 18.4 mph N/A   Mostly Cloudy
3:52 AM 54.0 °F - 51.1 °F 90% 29.60 in 10.0 mi South 11.5 mph - N/A   Mostly Cloudy
4:52 AM 55.0 °F - 46.9 °F 74% 29.60 in 10.0 mi South 15.0 mph 21.9 mph N/A   Overcast
5:52 AM 54.0 °F - 45.0 °F 72% 29.58 in 10.0 mi SSE 6.9 mph - N/A   Overcast
6:17 AM 53.6 °F - 46.4 °F 77% 29.68 in 10.0 mi WSW 10.4 mph 24.2 mph 0.00 in   Overcast
6:52 AM 46.9 °F - 43.0 °F 86% 29.67 in 10.0 mi West 9.2 mph - 0.00 in   Mostly Cloudy
7:24 AM 46.4 °F 44.3 °F 42.8 °F 87% 29.69 in 10.0 mi SW 4.6 mph - N/A   Mostly Cloudy
7:41 AM 46.4 °F 43.5 °F 42.8 °F 87% 29.68 in 10.0 mi West 5.8 mph - N/A   Overcast
7:50 AM 46.4 °F 43.5 °F 42.8 °F 87% 29.66 in 10.0 mi West 5.8 mph - N/A   Overcast
7:52 AM 46.0 °F 41.9 °F 42.1 °F 86% 29.66 in 10.0 mi West 8.1 mph - N/A   Overcast
8:52 AM 44.1 °F 38.6 °F 41.0 °F 89% 29.71 in 10.0 mi West 10.4 mph - N/A   Overcast
9:07 AM 42.8 °F 36.2 °F 41.0 °F 93% 29.69 in 7.0 mi WNW 12.7 mph - N/A   Overcast
9:52 AM 42.1 °F 35.7 °F 39.0 °F 89% 29.71 in 6.0 mi WNW 11.5 mph - N/A   Overcast
10:52 AM 42.1 °F 35.2 °F 37.9 °F 85% 29.73 in 10.0 mi WNW 12.7 mph - N/A   Overcast
11:52 AM 39.9 °F 31.4 °F 37.0 °F 89% 29.74 in 9.0 mi NW 16.1 mph - N/A   Overcast
12:11 PM 39.2 °F 31.6 °F 35.6 °F 87% 29.75 in 10.0 mi NW 12.7 mph 20.7 mph N/A   Overcast
12:52 PM 39.0 °F 30.6 °F 35.1 °F 86% 29.77 in 10.0 mi WNW 15.0 mph 20.7 mph N/A   Overcast
1:42 PM 39.2 °F 30.8 °F 33.8 °F 81% 29.77 in 10.0 mi NW 15.0 mph 26.5 mph N/A   Overcast
1:52 PM 37.9 °F 27.3 °F 34.0 °F 86% 29.78 in 10.0 mi NW 21.9 mph 26.5 mph N/A   Overcast
2:52 PM 37.0 °F 27.4 °F 33.1 °F 86% 29.80 in 8.0 mi NW 17.3 mph 21.9 mph N/A   Overcast
3:52 PM 34.0 °F 22.7 °F 30.0 °F 85% 29.85 in 7.0 mi WNW 19.6 mph - 0.00 in   Overcast
4:52 PM 32.0 °F 21.6 °F 27.0 °F 82% 29.89 in 10.0 mi NW 15.0 mph 28.8 mph N/A   Overcast
5:52 PM 32.0 °F 20.1 °F 25.0 °F 75% 29.91 in 10.0 mi NW 19.6 mph 26.5 mph N/A   Overcast
6:52 PM 32.0 °F 23.0 °F 25.0 °F 75% 29.94 in 10.0 mi NW 11.5 mph 23.0 mph N/A   Overcast
7:52 PM 32.0 °F 21.2 °F 24.1 °F 73% 29.95 in 10.0 mi NW 16.1 mph 23.0 mph N/A   Overcast
8:52 PM 30.9 °F 20.2 °F 24.1 °F 76% 29.97 in 10.0 mi NW 15.0 mph 23.0 mph N/A   Overcast
9:52 PM 30.0 °F 18.3 °F 21.9 °F 72% 29.99 in 10.0 mi NW 17.3 mph 25.3 mph N/A   Overcast
11:52 PM 30.0 °F 21.1 °F 21.9 °F 72% 30.02 in 10.0 mi WNW 10.4 mph - N/A   Overcast
12:52 AM 30.0 °F 21.1 °F 21.9 °F 72% 30.01 in 10.0 mi NW 10.4 mph - N/A   Overcast